Location: Altleiningen
(49.5078°N, 8.0741°E)
Time: 18:21:48
(UTC+00:00)

ISS - Visible Passes

Search period start: 13 May 2021 00:00
Search period end: 23 May 2021 00:00
Orbit: 417 x 422 km, 51.6° (Epoch: 13 May)

Date Brightness Start Highest point End Pass type
(mag) Time Alt. Az. Time Alt. Az. Time Alt. Az.
13 May -3.2 00:05:02 53° NW 00:05:29 59° N 00:08:50 10° ENE visible
13 May -3.6 01:39:06 10° WNW 01:42:30 77° NNE 01:45:53 10° ESE visible
13 May -3.1 23:18:38 50° NE 23:18:38 50° NE 23:21:22 10° ENE visible
14 May -3.4 00:51:39 10° WNW 00:55:01 65° N 00:58:24 10° E visible
14 May -3.5 02:28:32 10° WNW 02:31:48 45° SSW 02:35:02 10° SE visible
14 May -3.0 20:50:53 10° SSW 20:53:53 30° SE 20:55:34 19° E visible
14 May -3.7 22:27:08 10° WSW 22:30:31 78° NNW 22:33:54 10° ENE visible
15 May -3.2 00:04:11 10° WNW 00:07:31 59° N 00:10:53 10° E visible
15 May -3.8 01:41:03 10° WNW 01:44:24 63° SSW 01:47:45 10° ESE visible
15 May -2.5 20:03:58 10° SSW 20:06:35 21° SE 20:09:13 10° E visible
15 May -3.9 21:39:41 10° WSW 21:43:03 84° SSE 21:46:26 10° ENE visible
15 May -3.2 23:16:41 10° W 23:20:01 57° N 23:23:22 10° E visible
16 May -3.9 00:53:35 10° WNW 00:56:59 84° SSW 01:00:22 10° ESE visible
16 May -2.5 02:30:49 10° W 02:33:27 21° SW 02:36:06 10° SSE visible
16 May -3.8 20:52:18 10° WSW 20:55:38 63° SSE 20:58:58 10° ENE visible
16 May -3.2 22:29:10 10° W 22:32:31 59° N 22:35:52 10° ENE visible
17 May -3.7 00:06:09 10° WNW 00:09:31 78° NNE 00:12:54 10° ESE visible
17 May -3.0 01:43:07 10° W 01:46:09 31° SW 01:49:11 10° SSE visible
17 May -3.4 20:05:01 10° SW 20:08:15 44° SSE 20:11:29 10° ENE visible
17 May -3.4 21:41:39 10° W 21:45:00 66° N 21:48:23 10° ENE visible
17 May -3.4 23:18:40 10° WNW 23:22:02 66° N 23:22:54 44° ENE visible
18 May -1.2 00:55:33 10° WNW 00:55:48 12° WNW 00:55:48 12° WNW visible
18 May -3.6 20:54:09 10° WSW 20:57:31 78° NNW 21:00:55 10° ENE visible
18 May -3.2 22:31:12 10° WNW 22:34:32 59° N 22:36:29 22° E visible
19 May -1.9 00:08:03 10° WNW 00:09:24 22° W 00:09:24 22° W visible
19 May -3.8 20:06:41 10° WSW 20:10:03 84° SSE 20:13:27 10° ENE visible
19 May -3.1 21:43:41 10° W 21:47:01 57° N 21:50:18 10° E visible
19 May -3.3 23:20:35 10° WNW 23:23:14 52° WNW 23:23:14 52° WNW visible
20 May -3.2 20:56:10 10° W 20:59:30 59° N 21:02:50 10° ENE visible
20 May -3.7 22:33:07 10° WNW 22:36:30 78° NNE 22:37:09 55° E visible
21 May -3.3 20:08:37 10° W 20:11:59 65° N 20:15:21 10° ENE visible
21 May -3.4 21:45:39 10° WNW 21:49:01 66° NNE 21:51:06 21° E visible
21 May -2.0 23:22:33 10° WNW 23:24:02 23° W 23:24:02 23° W visible
22 May -3.2 20:58:09 10° WNW 21:01:29 59° N 21:04:50 10° E visible
22 May -3.6 22:35:01 10° WNW 22:38:02 58° WSW 22:38:02 58° WSW visible
